Vorticity
5 4 5 2 -0 -1 -0 -1 7 29 50 51 47 45 17 11 36 18 3 7 14 15 13 11 6 4 8
4 1 1 2 1 -1 2 24 48 53 43 35 16 7 28 22 3 11 19 9 8 9 10 9 12 15 16
-1 2 3 -1 0 5 43 54 40 34 20 5 20 23 9 9 17 13 12 14 12 17 20 17 15 18 16
4 1 0 4 18 54 45 33 34 6 18 14 20 10 11 14 12 9 11 12 17 7 5 11 19 23 28
1 -5 14 45 48 33 35 33 7 15 13 15 11 10 11 9 7 3 9 14 6 9 24 26 24 20 20
2 33 52 35 37 34 31 7 11 12 16 10 8 10 7 11 9 4 16 8 21 27 28 27 24 18 29
54 42 40 39 29 20 3 16 13 9 14 11 10 13 8 6 11 7 14 24 19 5 3 4 4 5 8
38 42 27 19 10 13 15 1 15 14 16 2 10 11 13 10 10 15 15 17 2 5 5 3 13 23 14
19 10 6 9 15 6 14 19 13 11 8 14 14 12 12 13 11 16 17 0 4 4 4 10 16 14 9
9 12 16 9 14 8 4 6 11 10 13 7 13 15 15 20 10 14 12 4 2 5 1 16 17 9 15
11 8 12 10 12 13 13 13 13 15 15 19 20 15 19 13 15 15 6 6 5 3 8 16 22 8 16
9 8 12 11 11 14 13 12 12 13 15 15 12 13 15 25 16 12 7 5 7 1 24 20 8 13 13
17 19 22 23 22 22 19 20 19 15 13 13 12 18 20 27 21 13 9 4 3 18 14 10 10 12 7
17 19 19 23 25 27 25 17 11 8 13 13 13 18 24 21 20 16 4 9 6 15 16 10 7 1 6
13 13 13 14 14 14 13 12 14 9 7 8 14 20 27 16 23 13 3 1 19 18 16 7 -1 7 10
17 15 13 13 15 15 16 18 10 7 9 10 14 20 14 19 30 6 2 8 16 17 13 8 1 -3 12
16 14 14 15 10 11 10 5 5 7 12 17 17 26 16 14 17 3 7 17 15 15 17 11 10 2 11
Height
5558 5546 5535 5524 5514 5502 5488 5477 5462 5444 5430 5417 5412 5409 5403 5399 5395 5392 5389 5387 5383 5379 5377 5375 5373 5371 5372
5540 5528 5513 5499 5487 5472 5457 5442 5427 5415 5405 5398 5397 5392 5387 5383 5380 5378 5376 5372 5369 5364 5361 5358 5356 5354 5354
5522 5506 5490 5472 5458 5442 5426 5413 5402 5395 5389 5385 5384 5376 5374 5370 5367 5366 5363 5359 5354 5351 5347 5343 5339 5337 5335
5495 5483 5464 5447 5426 5413 5403 5392 5386 5379 5377 5372 5369 5364 5362 5358 5357 5354 5349 5344 5340 5335 5331 5327 5322 5319 5318
5466 5451 5437 5418 5401 5392 5383 5379 5375 5365 5366 5362 5357 5355 5350 5347 5345 5342 5336 5331 5327 5322 5316 5311 5307 5305 5302
5437 5418 5405 5392 5383 5376 5371 5369 5367 5354 5354 5353 5346 5344 5340 5336 5334 5330 5325 5322 5317 5311 5305 5301 5298 5295 5291
5407 5393 5384 5374 5370 5366 5361 5357 5353 5347 5343 5345 5338 5334 5330 5326 5324 5320 5316 5311 5307 5302 5299 5295 5291 5287 5284
5387 5379 5370 5365 5360 5356 5351 5349 5344 5337 5330 5333 5327 5323 5320 5315 5314 5310 5306 5302 5298 5295 5291 5287 5282 5277 5273
5376 5369 5362 5356 5349 5345 5341 5337 5334 5328 5319 5319 5315 5313 5308 5303 5303 5300 5296 5293 5290 5286 5282 5277 5271 5267 5264
5366 5360 5353 5346 5339 5332 5328 5326 5323 5321 5309 5310 5304 5298 5301 5290 5291 5289 5287 5284 5281 5276 5271 5266 5261 5258 5254
5358 5350 5343 5336 5329 5323 5317 5313 5310 5307 5300 5297 5294 5288 5285 5284 5278 5277 5278 5275 5271 5267 5262 5256 5251 5246 5244
5348 5340 5333 5325 5319 5313 5307 5302 5297 5294 5292 5286 5283 5279 5276 5274 5272 5267 5266 5266 5263 5260 5254 5250 5244 5238 5233
5337 5329 5320 5313 5307 5303 5297 5293 5289 5284 5281 5277 5273 5270 5266 5264 5264 5261 5262 5260 5255 5251 5247 5242 5238 5233 5227
5329 5320 5312 5304 5298 5293 5290 5287 5284 5279 5272 5268 5265 5262 5258 5255 5255 5255 5254 5253 5249 5243 5240 5236 5231 5226 5219
5321 5314 5306 5299 5293 5288 5284 5281 5278 5275 5271 5264 5257 5254 5251 5250 5248 5248 5249 5246 5240 5236 5233 5230 5225 5219 5211
5314 5307 5301 5295 5289 5283 5279 5275 5272 5269 5265 5260 5255 5250 5245 5243 5243 5244 5242 5238 5233 5230 5227 5224 5220 5212 5204
5308 5301 5295 5288 5284 5279 5275 5271 5268 5263 5258 5254 5250 5246 5243 5241 5240 5240 5238 5233 5230 5226 5223 5220 5216 5209 5200